"TOA5","AWS1","CR1000","7964","CR1000.Std.14","CPU:AWS1_114.CR1","64363","TBL110"
"TIMESTAMP","RECORD","Wind_spd_WVc(1)","Wind_spd_WVc(2)","Air_Temp_Avg","Humidity_Avg","SW_upper_Wm2_Avg","Rain_Tot","Press_Avg","Issui_Tot","Depth_cm","SR50A_Raw","Quality","Ground_Temp_Avg(1)","Ground_Temp_Avg(2)","SW_lower_Wm2_Avg","Albedo_Avg","SWC_per(1)","SWC_per(2)","Period(1)","Period(2)"
"TS","RN","","","","","","","","","","","","","","","","","","",""
"","","WVc","WVc","Avg","Avg","Avg","Tot","Avg","Tot","Smp","Smp","Smp","Avg","Avg","Avg","Avg","Smp","Smp","Smp","Smp"
"2017-08-30 00:00:00",303469,0,0,19.16,82.4,0,0,865.462,0,2.924,3.046,236,21.68,21.07,0.5002042,0,47.79,54.97,32.74,34.51
"2017-08-30 00:10:00",303470,0.167,1.016,19.11,82.9,0,0,865.2936,0,3.914,3.036,252,21.68,21.07,0.5077721,0,47.79,54.97,32.74,34.51
"2017-08-30 00:20:00",303471,0.245,295.5,19.03,84.6,0,0,865.2927,0,3.81,3.039,366,21.63,21.09,0.5987198,0,47.79,54.92,32.74,34.49
"2017-08-30 00:30:00",303472,0.022,22.72,18.35,91,0,3,865.2318,0,-1.004,3.089,197,21.54,21.1,0.2917884,0,47.79,54.97,32.74,34.51
"2017-08-30 00:40:00",303473,0,0,18.03,98.7,0,1.5,865.0749,0,2.545,3.056,229,21.55,21.08,0.227368,0,47.84,54.97,32.76,34.51
"2017-08-30 00:50:00",303474,0.08,178.1,17.81,100,0,3,865.0703,0,-0.147,3.083,319,21.6,21.09,0.2273671,0,48.16,54.92,32.84,34.49
"2017-08-30 01:00:00",303475,0.093,160.4,17.68,100,0.003930143,3.5,865.2959,0,-0.89,3.09,233,21.53,21.09,0.2842058,0.032,50.99,55.09,33.54,34.53
"2017-08-30 01:10:00",303476,0.019,89.3,17.7,100,0,7.5,865.4246,0,0.678,3.075,214,21.43,21.1,0.2766299,0,53.95,56.52,34.26,34.87
"2017-08-30 01:20:00",303477,0.147,344.8,17.66,100,0,6,865.3063,0,3.454,3.049,212,21.05,21.13,0.2046331,0,54.24,61.46,34.33,36.01
"2017-08-30 01:30:00",303478,0.317,2.188,17.56,100,0,6,865.4,0,0.463,3.078,226,20.82,21.15,0.1781056,0,54.75,62.72,34.45,36.3
"2017-08-30 01:40:00",303479,0.057,196,17.6,100,0,2,865.6193,0,-1.086,3.093,205,20.58,21.14,0.1743171,0,55.32,62.9,34.59,36.34
"2017-08-30 01:50:00",303480,0,0,17.56,100,0,1,865.5592,0,3.636,3.047,346,20.49,21.12,0.1023173,0,54.58,63.02,34.41,36.36
"2017-08-30 02:00:00",303481,0,0,17.48,100,0,0,865.5462,0,3.968,3.044,234,20.46,21.11,0.06063262,0,54.12,63.02,34.3,36.36
"2017-08-30 02:10:00",303482,0,0,17.51,100,0,0,865.4009,0,3.992,3.044,226,20.41,21.11,0.1818979,0,53.78,63.02,34.22,36.36
"2017-08-30 02:20:00",303483,0,0,17.55,100,0,0.5,865.3,0,2.754,3.056,236,20.35,21.1,0.1250549,0,53.61,63.02,34.18,36.36
"2017-08-30 02:30:00",303484,0,0,17.49,100,0,0.5,865.3926,0,4.406,3.04,424,20.32,21.1,0.1932658,0,53.5,63.02,34.15,36.36
"2017-08-30 02:40:00",303485,0.066,24.94,17.45,100,0,0.5,865.3425,0,2.048,3.064,223,20.33,21.1,0.1326322,0,53.5,63.02,34.15,36.36
"2017-08-30 02:50:00",303486,0.022,341.6,17.29,100,0,0,865.2936,0,3.299,3.053,259,20.29,21.1,0.00378952,0,53.45,63.02,34.14,36.36
"2017-08-30 03:00:00",303487,0,0,17.08,100,0,0.5,865.3351,0,4.355,3.043,296,20.23,21.04,0.07200018,0,53.39,62.96,34.13,36.35
"2017-08-30 03:10:00",303488,0,0,16.99,100,0,0.5,865.4455,0,1.928,3.067,229,20.27,21.03,0.1098954,0,53.39,62.48,34.13,36.24
"2017-08-30 03:20:00",303489,0,0,17.02,100,0,0,865.3009,0,-0.078,3.086,225,20.27,21.07,0.2917934,0,53.33,62.18,34.11,36.17
"2017-08-30 03:30:00",303490,0.252,111.9,16.99,100,0,0.5,865.323,0,-36.62,3.441,212,20.29,21.1,0.2197931,0,53.28,61.88,34.1,36.11
"2017-08-30 03:40:00",303491,0.179,19.27,16.8,100,0,0,865.2994,0,2.537,3.062,280,20.31,21.1,0.1288444,0,53.22,61.64,34.08,36.05
"2017-08-30 03:50:00",303492,0,0,16.84,100,0,0.5,865.3589,0,2.958,3.057,244,20.32,21.06,0.2842156,0,53.22,61.46,34.08,36.01
"2017-08-30 04:00:00",303493,0.003,139.5,16.89,100,0,0.5,865.3724,0,1.745,3.069,216,20.32,21.02,0.2690574,0,53.22,61.1,34.08,35.93
"2017-08-30 04:10:00",303494,0,0,16.85,100,0,1,865.3055,0,2.077,3.066,219,20.32,21.02,0.2160038,0,53.22,60.98,34.08,35.9
"2017-08-30 04:20:00",303495,0,0,16.87,100,0,0,865.2907,0,2.594,3.061,224,20.31,21.01,0.3221079,0,53.28,60.98,34.1,35.9
"2017-08-30 04:30:00",303496,0.01,98.1,16.83,100,0,0,865.1246,0,2.847,3.059,235,20.26,21,0.2880021,0,53.22,60.92,34.08,35.89
"2017-08-30 04:40:00",303497,0.03,176.9,16.78,100,0,0,86
"2017-08-30 04:40:00",303497,0.03,176.9,16.78,100,0,0,865.1553,0,3.052,3.057,231,20.23,21,0.3296887,0,53.22,60.92,34.08,35.89
"2017-08-30 04:50:00",303498,0.099,343.2,16.77,100,0,0,865.2516,0,3.052,3.057,225,20.2,21.02,0.3865328,0,53.16,60.92,34.07,35.89
"2017-08-30 05:00:00",303499,0.019,48.3,16.74,100,0,0,865.309,0,2.64,3.061,226,20.2,21.02,0.2690573,0,53.16,60.8,34.07,35.86
"2017-08-30 05:10:00",303500,0.092,90.7,16.67,100,0,0.5,865.3007,0,2.378,3.064,217,20.19,21.01,0.2501097,0,53.11,60.74,34.06,35.85
"2017-08-30 05:20:00",303501,0.034,6.257,16.71,100,0.07860567,1,865.4597,0,2.528,3.063,243,20.19,21.01,0.3448482,0.482,53.05,60.68,34.04,35.83
"2017-08-30 05:30:00",303502,0,0,16.66,100,0.9747103,0.5,865.3129,0,1.039,3.077,200,20.2,20.99,0.3751645,0.406,53.16,60.62,34.07,35.82
"2017-08-30 05:40:00",303503,0,0,16.69,100,2.755129,0,865.4118,0,1.189,3.076,208,20.21,20.91,0.6593801,0.25,53.16,60.62,34.07,35.82
"2017-08-30 05:50:00",303504,0,0,16.71,100,5.482745,0,865.5491,0,1.404,3.073,202,20.23,20.9,1.087598,0.2,53.11,59.67,34.06,35.6
"2017-08-30 06:00:00",303505,0,0,16.75,100,5.254789,0,865.6581,0,1.61,3.071,202,20.23,20.93,0.9473852,0.187,53.05,59.56,34.04,35.58
"2017-08-30 06:10:00",303506,0,0,16.74,100,6.492828,0,865.8116,0,1.966,3.068,219,20.23,20.93,1.098967,0.169,52.94,59.56,34.02,35.58
"2017-08-30 06:20:00",303507,0.065,18.25,16.65,100,30.6287,1,865.797,0,-0.863,3.095,202,20.22,20.93,4.221549,0.143,51.99,59.5,33.79,35.56
"2017-08-30 06:30:00",303508,0.798,53.48,16.84,100,63.69024,0,865.8059,0,-0.657,3.093,204,20.2,20.89,8.564363,0.134,51.99,59.44,33.79,35.55
"2017-08-30 06:40:00",303509,0.503,55.13,16.97,100,87.60209,0,865.8157,0,-0.697,3.092,204,20.19,20.85,11.70968,0.133,51.94,59.44,33.77,35.55
"2017-08-30 06:50:00",303510,0.176,305,17.25,100,132.0536,0,865.8112,0,-0.999,3.094,202,20.2,20.85,18.09127,0.137,51.94,59.38,33.77,35.54
"2017-08-30 07:00:00",303511,0.292,336.5,17.35,100,134.4747,0,865.8118,0,-0.42,3.087,200,20.18,20.84,18.75065,0.139,51.94,59.32,33.77,35.52
"2017-08-30 07:10:00",303512,0.115,93.9,17.58,100,108.633,0,865.7914,0,-0.515,3.087,206,20.21,20.81,14.48742,0.133,51.88,59.26,33.76,35.51
"2017-08-30 07:20:00",303513,0.243,144.7,17.66,100,116.9648,0,865.5984,0,-35.49,3.425,202,20.21,20.77,15.7417,0.135,51.82,59.2,33.75,35.5
"2017-08-30 07:30:00",303514,0.449,60.02,17.66,100,114.1295,0,865.5548,0,-0.147,3.083,218,20.21,20.76,15.59369,0.137,51.77,59.14,33.73,35.48
"2017-08-30 07:40:00",303515,0.269,293.3,17.81,100,147.2959,0,865.6844,0,-0.972,3.091,211,20.21,20.77,19.77718,0.134,51.77,59.14,33.73,35.48
"2017-08-30 07:50:00",303516,0.2,298.1,17.93,100,131.1782,0,865.7987,0,4.402,3.038,370,20.2,20.78,17.76877,0.135,51.71,59.14,33.72,35.48
"2017-08-30 08:00:00",303517,0.09,323.1,17.94,100,145.0419,0,865.7972,0,2.494,3.057,297,20.18,20.8,19.1706,0.132,51.33,59.08,33.62,35.47
"2017-08-30 08:10:00",303518,0.113,330.3,17.82,100,138.3092,0,865.799,0,-0.442,3.085,217,20.14,20.81,18.10522,0.131,51.27,59.03,33.61,35.45
"2017-08-30 08:20:00",303519,0.516,66.81,18.18,100,251.4659,0,865.7526,0,3.924,3.04,372,20.13,20.81,33.22063,0.133,51.27,58.91,33.61,35.43
"2017-08-30 08:30:00",303520,0.355,48.43,18.66,94,289.2306,0,865.5462,0,4.106,3.036,349,20.14,20.79,38.1615,0.133,51.21,58.91,33.6,35.43
"2017-08-30 08:40:00",303521,0.495,147.9,18.89,89.6,249.0847,0,865.5568,0,3.031,3.046,292,20.19,20.78,34.88253,0.14,51.16,58.85,33.58,35.41
"2017-08-30 08:50:00",303522,0.236,284.1,18.97,93.4,276.848,0,865.6683,0,1.634,3.06,282,20.24,20.75,38.4658,0.138,51.16,58.79,33.58,35.4
"2017-08-30 09:00:00",303523,0.188,11.62,18.55,99.9,195.1404,0,865.7926,0,3.874,3.042,241,20.2,20.68,26.79502,0.137,51.1,58.73,33.57,35.39
"2017-08-30 09:10:00",303524,0.21,50.21,17.96,100,179.8972,0,865.7863,0,4.393,3.037,236,20.2,20.61,24.69541,0.137,51.1,58.73,33.57,35.39
"2017-08-30 09:20:00",303525,0.042,162.7,18.42,100,368.9514,0,865.6221,0,4.604,3.03,212,20.18,20.61,56.71415,0.15,51.1,58.67,33.57,35.37
"2017-08-30 09:30:00",303526,0.15,334.6,19.55,96.8,435.5985,0,865.4199,0,4.352,3.028,212,20.15,20.59,61.29696,0.144,51.1,58.61,33.57,35.36
"2017-08-30 09:40:00",303527,0.554,187,20.28,83.5,478.7682,0,865.3272,0,4.484,3.025,289,20.18,20.55,60.23254,0.142,50.99,58.61,33.54,35.36
"2017-08-30 09:50:00",303528,0.541,179.4,20.48,80.4,281.13,0,865.2978,0,4.473,3.024,221,20.23,20.54,68.01569,0.291,50.99,58.56,33.54,35.35
"2017-08-30 10:00:00",303529,0.531,304.8,20.25,86,332.8193,0,865.2936,0,3.815,3.031,207,20.21,20.55,53.22714,0.165,50.94,58.5,33.53,35.33
"2017-08-30 10:10:00",303530,0.429,0.111,20.48,87.7,392.7817,0,865.2809,0,3.976,3.031,216,20.18,20.57,49.59034,0.128,50.94,58.5,33.53,35.33
"2017-08-30 10:20:00",303531,0.469,5.342,20.2,89.2,484.0319,0,865.262,0,5.06,3.019,307,20.2,20.58,66.10031,0.139,50.94,58.44,33.53,35.32
"2017-08-30 10:30:00",303532,0.484,14.94,20.78,85.7,610.6067,0,865.1041,0,4.17,3.024,201,20.32,20.58,83.66641,0.138,50.94,58.44,33.53,35.32
"2017-08-30 10:40:00",303533,0.374,350,20.73,86.9,375.3596,0,864.9462,0,4.393,3.025,214,20.26,20.58,52.39695,0.14,50.88,58.38,33.52,35.31
"2017-08-30 10:50:00",303534,0.444,356.9,20.46,89,503.0616,0,864.8093,0,3.657,3.031,232,20.34,20.52,71.12546,0.14,50.88,58.32,33.52,35.29
"2017-08-30 11:00:00",303535,0.541,13.62,20.33,88.1,450.939,0,864.923,0,4.305,3.027,224,20.36,20.44,62.88526,0.138,50.83,58.32,33.5,35.29
"2017-08-30 11:10:00",303536,0.754,10.52,20.77,85.4,941.6597,0,864.8156,0,4.301,3.021,223,20.4,20.42,132.4034,0.14,50.83,58.32,33.5,35.29
"2017-08-30 11:20:00",303537,0.602,6.785,21.72,78.93,1005.225,0,864.6641,0,4.462,3.017,306,20.44,20.41,146.6205,0.145,50.77,58.26,33.49,35.28
"2017-08-30 11:30:00",303538,0.519,26.46,21.71,79.18,731.6759,0,864.4346,0,3.412,3.028,232,20.4,20.4,105.8248,0.139,50.77,58.26,33.49,35.28
"2017-08-30 11:40:00",303539,0.478,2.768,21.7,79.48,619.0998,0,864.2871,0,4.197,3.02,316,20.52,20.4,91.04306,0.143,50.77,58.26,33.49,35.28
"2017-08-30 11:50:00",303540,0.459,317.6,21.44,77.36,684.4343,0,864.2808,0,3.366,3.028,240,20.55,20.41,102.7866,0.147,50.66,58.21,33.46,35.26
"2017-08-30 12:00:00",303541,0.311,315.4,22.25,77.84,857.2018,0,864.2808,0,3.861,3.021,233,20.6,20.39,127.5504,0.142,50.66,58.21,33.46,35.26
"2017-08-30 12:10:00",303542,0.253,303.7,21.96,79.7,583.1263,0,864.0912,0,4.312,3.018,281,20.66,20.37,87.40255,0.143,50.61,58.21,33.45,35.26
"2017-08-30 12:20:00",303543,0.389,16.95,22.19,76.42,823.0947,0,864.0303,0,4.231,3.017,261,20.7,20.37,126.1109,0.149,50.61,58.15,33.45,35.25
"2017-08-30 12:30:00",303544,0.428,335.5,21.81,77.61,439.6373,0,863.9882,0,4.197,3.02,287,20.73,20.38,65.64662,0.147,50.55,58.15,33.43,35.25
"2017-08-30 12:40:00",303545,0.576,336.7,21.49,79.71,291.2881,0,863.7776,0,3.161,3.034,232,20.72,20.42,44.43998,0.151,50.55,58.15,33.43,35.25
"2017-08-30 12:50:00",303546,0.205,264.8,20.88,82.7,207.1458,0,863.7776,0,4.741,3.019,356,20.85,20.44,29.80218,0.144,50.55,58.09,33.43,35.24
"2017-08-30 13:00:00",303547,0.187,304.7,20.92,83.4,314.5206,0,863.7334,0,4.289,3.022,245,20.87,20.44,48.94052,0.153,50.55,58.09,33.43,35.24
"2017-08-30 13:10:00",303548,0.202,284.2,21.17,82.6,212.0126,0,863.525,0,0.357,3.061,212,20.96,20.45,31.65504,0.15,50.5,58.09,33.42,35.24
"2017-08-30 13:20:00",303549,0.16,279.8,20.91,83.1,160.0168,0,863.525,0,1.741,3.049,216,20.99,20.45,22.39651,0.14,50.5,58.09,33.42,35.24
"2017-08-30 13:30:00",303550,0.079,244.9,20.88,82.3,209.5149,0,863.546,0,2.384,3.041,220,21.05,20.46,31.00362,0.147,50.5,58.15,33.42,35.25
"2017-08-30 13:40:00",303551,0.114,307.2,20.76,84.5,99.90834,0,863.5923,0,0.716,3.06,207,21.1,20.46,13.17216,0.131,50.5,58.09,33.42,35.24
"2017-08-30 13:50:00",303552,0.091,22.94,20.52,87.3,271.1258,0,863.6092,0,4.845,3.019,230,21.16,20.48,39.93063,0.147,50.44,58.09,33.41,35.24
"2017-08-30 14:00:00",303553,0.364,58.46,21.19,84.3,681.9529,0,863.407,0,4.325,3.02,227,21.18,20.44,82.70396,0.121,50.44,58.09,33.41,35.24
"2017-08-30 14:10:00",303554,0.27,313.7,21.14,81.2,306.9197,0,863.2723,0,3.969,3.025,227,21.21,20.42,41.33656,0.13,50.44,58.09,33.41,35.24
"2017-08-30 14:20:00",303555,0.39,322.6,21.27,81.4,423.5233,0,863.2176,0,3.854,3.025,231,21.27,20.41,57.1493,0.136,50.44,58.03,33.41,35.22
"2017-08-30 14:30:00",303556,0.13,112.6,21.38,82,185.6892,0,863.0891,0,4.561,3.02,204,21.32,20.41,23.10544,0.124,50.44,58.03,33.41,35.22
"2017-08-30 14:40:00",303557,0.086,39.12,20.96,84,228.5558,0,863.0196,0,4.321,3.023,281,21.3,20.42,30.84516,0.135,50.39,58.03,33.39,35.22
"2017-08-30 14:50:00",303558,0.092,295.7,20.61,82.8,204.68,0,863.0196,0,4.564,3.024,232,21.28,20.44,27.44663,0.134,50.39,58.03,33.39,35.22
"2017-08-30 15:00:00",303559,0.104,279.9,20.18,82.9,176.3427,0,863.0196,0,4.334,3.028,223,21.41,20.45,23.1245,0.131,50.39,58.03,33.39,35.22
"2017-08-30 15:10:00",303560,0.161,281,19.84,83.8,170.4547,0,863.0196,0,4.529,3.027,256,21.44,20.47,22.46176,0.131,50.39,57.97,33.39,35.21
"2017-08-30 15:20:00",303561,0.165,282.8,19.58,83.6,108.7955,0,863.0512,0,4.141,3.033,247,21.44,20.5,12.95664,0.119,50.33,57.97,33.38,35.21
"2017-08-30 15:30:00",303562,0.095,247.4,19.29,84.6,92.90493,0,863.2133,0,4.625,3.029,258,21.46,20.49,10.80846,0.116,50.33,57.97,33.38,35.21
"2017-08-30 15:40:00",303563,0.157,254.6,19.1,83.9,121.4368,0,863.2744,0,4.245,3.034,228,21.55,20.51,16.08988,0.132,50.33,57.97,33.38,35.21
"2017-08-30 15:50:00",303564,0.062,57.37,19.02,84.1,166.958,0,863.2723,0,4.524,3.031,291,21.55,20.56,23.32665,0.14,50.28,57.91,33.37,35.2
"2017-08-30 16:00:00",303565,0.135,288.9,18.94,83.4,108.3985,0,863.3586,0,4.536,3.032,260,21.53,20.61,13.2834,0.122,50.28,57.91,33.37,35.2
"2017-08-30 16:10:00",303566,0.17,306.3,18.57,82.2,131,0,863.5207,0,3.964,3.038,239,21.52,20.61,17.67067,0.135,50.28,57.91,33.37,35.2
"2017-08-30 16:20:00",303567,0.275,120.7,18.65,82.5,123.7906,0,863.5207,0,4.435,3.035,257,21.53,20.61,16.21594,0.13,50.22,57.91,33.35,35.2
"2017-08-30 16:30:00",303568,0.457,170.6,18.46,81.8,143.6263,0,863.5228,0,4.567,3.033,276,21.59,20.62,21.08125,0.147,50.22,57.91,33.35,35.2
"2017-08-30 16:40:00",303569,0.416,158.5,18.66,81,99.0742,0,863.4744,0,4.36,3.035,270,21.67,20.62,13.19683,0.132,50.22,57.91,33.35,35.2
"2017-08-30 16:50:00",303570,0.48,216.6,18.53,83.2,104.7326,0,863.5102,0,4.257,3.036,261,21.67,20.62,15.17839,0.145,50.22,57.86,33.35,35.18
"2017-08-30 17:00:00",303571,0.303,14.61,18.48,84.8,84.45219,0,863.525,0,4.188,3.038,233,21.67,20.62,11.363,0.127,50.17,57.86,33.34,35.18
"2017-08-30 17:10:00",303572,0.041,293,18.18,86.1,67.04504,0,863.5797,0,3.923,3.041,242,21.67,20.67,8.555567,0.124,50.22,57.86,33.35,35.18
"2017-08-30 17:20:00",303573,0.018,176.7,18.18,87.8,45.8694,0,863.6534,0,4.296,3.038,248,21.68,20.74,4.812207,0.104,50.22,57.86,33.35,35.18
"2017-08-30 17:30:00",303574,0.001,123.9,18.05,88.3,47.3245,0,863.5881,0,3.642,3.045,256,21.69,20.77,5.490584,0.116,50.17,57.86,33.34,35.18
"2017-08-30 17:40:00",303575,0.035,136.2,17.85,88.8,33.01604,0,863.525,0,2.337,3.059,239,21.69,20.77,3.42172,0.103,50.22,57.86,33.35,35.18
"2017-08-30 17:50:00",303576,0.075,5.272,17.53,88.1,31.73129,0,863.426,0,2.213,3.062,221,21.7,20.76,3.956058,0.123,50.22,57.86,33.35,35.18
"2017-08-30 18:00:00",303577,0.073,67.46,17.41,88.6,24.11134,0,863.525,0,4.113,3.044,282,21.7,20.77,3.452136,0.143,50.17,57.8,33.34,35.17
"2017-08-30 18:10:00",303578,0.119,16.2,17.2,86,11.539,0,863.525,0,3.176,3.054,254,21.71,20.76,1.307356,0.113,50.17,57.86,33.34,35.18
"2017-08-30 18:20:00",303579,0.116,76.95,16.99,86.9,3.376013,0,863.5207,0,1.955,3.067,232,21.71,20.75,0.1705244,0.021,50.17,57.8,33.34,35.17
"2017-08-30 18:30:00",303580,0.143,264.2,16.66,87.8,0,0,863.525,0,2.729,3.062,250,21.71,20.75,0,0,50.17,57.8,33.34,35.17
"2017-08-30 18:40:00",303581,0.056,313.6,16.4,90.5,0,0,863.6407,0,3.242,3.057,264,21.71,20.75,0.003789502,0,50.11,57.8,33.33,35.17
"2017-08-30 18:50:00",303582,0.025,92.3,16.43,89.8,0,0,863.7755,0,4.033,3.05,292,21.72,20.76,0,0,50.11,57.86,33.33,35.18
"2017-08-30 19:00:00",303583,0.027,16.53,16.31,89.5,0,0,863.7824,0,-34.44,3.423,202,21.71,20.8,0.1136861,0,50.11,57.8,33.33,35.17
"2017-08-30 19:10:00",303584,0,0,16.3,89.4,0,0,863.7338,0,4.73,3.043,316,21.71,20.84,0.06442216,0,50.11,57.8,33.33,35.17
"2017-08-30 19:20:00",303585,0,0,16.38,88.4,0,0,863.7711,0,4.888,3.041,311,21.67,20.84,0.3069528,0,50.11,57.8,33.33,35.17
"2017-08-30 19:30:00",303586,0.086,178.7,16.46,85.7,0,0,863.7796,0,5.3,3.037,384,21.63,20.85,0.2766365,0,50.11,57.8,33.33,35.17
"2017-08-30 19:40:00",303587,0.05,27.57,16.43,87.2,0,0,863.8416,0,3.938,3.05,305,21.63,20.9,0.2690574,0,50.11,57.74,33.33,35.16
"2017-08-30 19:50:00",303588,0.009,297.4,16.33,86.3,0,0,864.0509,0,4.879,3.042,358,21.68,20.92,0.1515816,0,50.11,57.8,33.33,35.17
"2017-08-30 20:00:00",303589,0.036,164.7,16.33,86,0,0,864.1857,0,2.306,3.067,252,21.71,20.93,0.1023176,0,50.11,57.74,33.33,35.16
"2017-08-30 20:10:00",303590,0,0,16.27,85.9,0,0,864.2781,0,5.062,3.04,348,21.69,20.93,0.2046352,0,50.11,57.74,33.33,35.16
"2017-08-30 20:20:00",303591,0,0,16.3,87.2,0,0,864.1528,0,5.394,3.037,393,21.69,20.9,0.1477921,0,50.06,57.74,33.31,35.16
"2017-08-30 20:30:00",303592,0.058,266.5,16.31,86.6,0,0,864.1234,0,4.991,3.04,329,21.57,20.9,0.3524273,0,50.06,57.68,33.31,35.14
"2017-08-30 20:40:00",303593,0.024,18.06,16.34,88.1,0,0,864.068,0,4.926,3.042,310,21.57,20.89,0.1591607,0,50.06,57.74,33.31,35.16
"2017-08-30 20:50:00",303594,0.202,314.8,16.15,90.3,0,0,864.1081,0,6.414,3.028,419,21.61,20.89,0.1629503,0,50.06,57.68,33.31,35.14
"2017-08-30 21:00:00",303595,0.151,174.8,16.17,90.7,0,0,864.0807,0,318,0,0,21.6,20.89,0.1288444,0,50.06,57.68,33.31,35.14
"2017-08-30 21:10:00",303596,0.073,180.4,15.99,92.3,0,0,864.0252,0,318,0,0,21.53,20.89,0,0,50.06,57.68,33.31,35.14
"2017-08-30 21:20:00",303597,0.188,254.5,15.71,93.8,0,0,863.9139,0,159.5,1.541,228,21.48,20.9,0.04926403,0,50.06,57.68,33.31,35.14
"2017-08-30 21:30:00",303598,0.133,1.591,15.71,95.9,0,0,864.0604,0,318,0,0,21.47,20.95,0.3600064,0,50.06,57.62,33.31,35.13
"2017-08-30 21:40:00",303599,0.099,228.4,15.75,97.3,0,0,863.933,0,318,0,0,21.5,20.98,0.2652679,0,50.06,57.62,33.31,35.13
"2017-08-30 21:50:00",303600,0.081,319.5,15.86,98,0,0,864.0851,0,244.7,0.713,286,21.53,20.98,0.4357972,0,50.06,57.62,33.31,35.13
"2017-08-30 22:00:00",303601,0.096,235.6,15.67,99.4,0,0,864.0766,0,318,0,0,21.47,21,0.1061071,0,50.06,57.62,33.31,35.13
"2017-08-30 22:10:00",303602,0.29,144,15.67,100,0,0,863.9349,0,318,0,0,21.39,21.01,0.1515816,0,50.06,57.62,33.31,35.13
"2017-08-30 22:20:00",303603,0.347,122.9,15.66,100,0,0,863.8362,0,318,0,0,21.4,21.02,0.1553712,0,50.06,57.62,33.31,35.13
"2017-08-30 22:30:00",303604,0.417,142,15.61,100,0,0,863.8363,0,318,0,0,21.41,21.02,0.1970561,0,50.06,57.62,33.31,35.13
"2017-08-30 22:40:00",303605,0.295,189,15.54,100,0,0,863.8165,0,318,0,0,21.37,21.01,0.1932666,0,50.06,57.56,33.31,35.12
"2017-08-30 22:50:00",303606,0.079,178.9,15.58,100,0,0,863.7222,0,318,0,0,21.37,21.02,0.3979018,0,50.06,57.56,33.31,35.12
"2017-08-30 23:00:00",303607,0.212,171.1,15.39,100,0,0,863.5954,0,318,0,0,21.3,21.02,0.1364235,0,50.01,57.56,33.3,35.12
"2017-08-30 23:10:00",303608,0.374,299.9,15.82,100,0,0,863.6415,0,318,0,0,21.33,21.02,0.6821174,0,50.01,57.56,33.3,35.12
"2017-08-30 23:20:00",303609,0.147,331.4,15.74,100,0,0,863.6324,0,318,0,0,21.35,21.01,0.4471658,0,50.06,57.56,33.31,35.12
"2017-08-30 23:30:00",303610,0.107,309,15.48,100,0,0,863.6606,0,318,0,0,21.28,21.01,0.2425306,0,50.01,57.56,33.3,35.12
"2017-08-30 23:40:00",303611,0.184,13.8,15.06,100,0,0,863.8439,0,318,0,0,21.28,21.01,0.03031633,0,50.01,57.56,33.3,35.12
"2017-08-30 23:50:00",303612,0.145,335.1,14.75,100,0,0,863.7772,0,318,0,0,21.25,21.01,0.03410587,0,50.01,57.56,33.3,35.12
